BAW283 EGLL-KLAX

Flight info

Callsign BAW283
Flight time N/A
Altitude 32000
Route CPT L9 DIDZA N14 OKTAD DCT MEDOG DCT VATRY DCT PIKIL/M084F340 NATA JANJO/N0487F340 DCT DENSO DCT AGLOL/N0489F360 DCT MERNU DCT XEXUL DCT BLUOX DCT RAP J158 DDY/N0480F380 J107 NORRA J100 LAS Q70 HAILO DCT KOPLE BOGET2
Aircraft B77W/H-SDE1E2E3FGHIJ2J3J4J5M1RWXY/LB1D1

Departure

Time 2026-05-04 11:05
Airport London Heathrow Airport (EGLL)

Arrival

Time N/A
Airport Los Angeles International Airport (KLAX)
Time Latitude Longitude Altitude Speed Heading
2026-05-04 10:28 51.46981 -0.47490 94 ft 0 kts 269°
2026-05-04 10:28 51.46982 -0.47492 94 ft 0 kts 270°
2026-05-04 10:49 51.46982 -0.47457 93 ft 4 kts 270°
2026-05-04 10:50 51.46982 -0.47414 92 ft 3 kts 270°
2026-05-04 10:51 51.47042 -0.47352 90 ft 0 kts 180°
2026-05-04 10:54 51.46775 -0.47350 91 ft 12 kts 180°
2026-05-04 10:54 51.46694 -0.47346 92 ft 12 kts 168°
2026-05-04 10:56 51.46660 -0.46135 90 ft 21 kts 90°
2026-05-04 10:56 51.46660 -0.45897 91 ft 21 kts 90°
2026-05-04 10:56 51.46661 -0.45659 91 ft 21 kts 89°
2026-05-04 10:57 51.46662 -0.45422 91 ft 21 kts 90°
2026-05-04 10:57 51.46663 -0.45183 91 ft 21 kts 89°
2026-05-04 10:57 51.46663 -0.44946 91 ft 21 kts 90°
2026-05-04 10:57 51.46664 -0.44708 91 ft 21 kts 89°
2026-05-04 10:58 51.46665 -0.44473 91 ft 21 kts 90°
2026-05-04 10:58 51.46666 -0.44235 91 ft 21 kts 90°
2026-05-04 10:58 51.46667 -0.43998 91 ft 21 kts 90°
2026-05-04 10:58 51.46667 -0.43760 91 ft 21 kts 89°
2026-05-04 10:59 51.46629 -0.43616 92 ft 13 kts 158°
2026-05-04 10:59 51.46569 -0.43599 91 ft 13 kts 175°
2026-05-04 10:59 51.46507 -0.43616 95 ft 7 kts 231°
2026-05-04 10:59 51.46495 -0.43689 91 ft 6 kts 268°
2026-05-04 11:00 51.46495 -0.43694 91 ft 0 kts 269°
2026-05-04 11:05 51.45428 -0.74568 5976 ft 267 kts 265°
2026-05-04 11:06 51.45347 -0.77556 5947 ft 268 kts 267°
2026-05-04 11:06 51.45330 -0.80502 5953 ft 269 kts 268°
2026-05-04 11:06 51.45311 -0.83502 6297 ft 269 kts 268°
2026-05-04 11:06 51.45284 -0.86512 7037 ft 270 kts 268°
2026-05-04 11:08 51.47631 -1.08366 10748 ft 330 kts 278°
2026-05-04 11:10 51.55535 -1.34600 15062 ft 396 kts 295°
2026-05-04 11:12 51.63538 -1.64062 19858 ft 426 kts 291°
2026-05-04 11:12 51.64673 -1.68484 20473 ft 429 kts 291°
2026-05-04 11:12 51.65820 -1.72941 21075 ft 433 kts 291°
2026-05-04 11:12 51.66980 -1.77441 21675 ft 437 kts 291°
2026-05-04 11:13 51.68134 -1.81921 22239 ft 441 kts 291°
2026-05-04 11:13 51.69313 -1.86500 22856 ft 444 kts 291°
2026-05-04 11:13 51.70499 -1.91119 23430 ft 448 kts 291°
2026-05-04 11:13 51.71694 -1.95779 23935 ft 452 kts 291°
2026-05-04 11:14 51.72860 -2.00339 24373 ft 455 kts 290°
2026-05-04 11:14 51.74070 -2.05078 24867 ft 458 kts 290°
2026-05-04 11:14 51.75284 -2.09843 25358 ft 460 kts 290°
2026-05-04 11:16 51.83883 -2.43903 28438 ft 478 kts 291°
2026-05-04 11:16 51.85140 -2.48930 28618 ft 486 kts 291°
2026-05-04 11:16 51.86412 -2.54024 28880 ft 490 kts 291°
2026-05-04 11:17 51.87683 -2.59128 29310 ft 490 kts 291°
2026-05-04 11:17 51.88957 -2.64252 29729 ft 491 kts 291°
2026-05-04 11:19 51.97803 -3.00173 31952 ft 496 kts 292°
2026-05-04 11:19 51.99061 -3.05329 32007 ft 502 kts 292°
2026-05-04 11:19 52.01632 -3.15911 32027 ft 509 kts 292°
2026-05-04 11:20 52.04218 -3.26595 32049 ft 515 kts 292°
2026-05-04 11:20 52.06844 -3.37503 32049 ft 521 kts 292°
2026-05-04 11:22 52.16107 -3.76437 32040 ft 533 kts 292°
2026-05-04 11:22 52.17436 -3.82080 32047 ft 534 kts 292°
2026-05-04 11:23 52.20086 -3.93383 32032 ft 534 kts 292°
2026-05-04 11:25 52.29249 -4.32908 32041 ft 537 kts 294°
2026-05-04 11:25 52.31870 -4.44354 32047 ft 538 kts 294°
2026-05-04 11:27 52.43572 -4.96225 32046 ft 542 kts 294°
2026-05-04 11:28 52.46112 -5.07655 32056 ft 542 kts 294°
2026-05-04 11:28 52.48680 -5.19275 32065 ft 543 kts 294°
2026-05-04 11:29 52.51243 -5.30937 32064 ft 543 kts 294°
2026-05-04 11:29 52.53787 -5.42540 32066 ft 543 kts 295°
2026-05-04 11:31 52.67668 -5.78363 32068 ft 529 kts 310°
2026-05-04 11:33 52.82444 -6.12807 32085 ft 526 kts 310°
2026-05-04 11:33 52.86623 -6.22649 32074 ft 525 kts 309°
2026-05-04 11:34 52.90807 -6.32543 32078 ft 524 kts 309°
2026-05-04 11:34 52.94970 -6.42422 32077 ft 523 kts 309°
2026-05-04 11:35 52.99123 -6.52316 32078 ft 522 kts 309°
2026-05-04 11:35 53.03259 -6.62207 32070 ft 522 kts 309°
2026-05-04 11:36 53.07360 -6.72052 32066 ft 521 kts 309°
2026-05-04 11:36 53.11472 -6.81963 32079 ft 520 kts 309°
2026-05-04 11:37 53.15568 -6.91877 32080 ft 519 kts 309°
2026-05-04 11:37 53.19589 -7.01645 32091 ft 519 kts 308°
2026-05-04 11:38 53.23644 -7.11533 32076 ft 520 kts 308°
2026-05-04 11:38 53.27717 -7.21505 32072 ft 520 kts 308°
2026-05-04 11:39 53.31782 -7.31499 32063 ft 520 kts 308°
2026-05-04 11:41 53.45875 -7.66450 32094 ft 518 kts 308°
2026-05-04 11:41 53.49884 -7.76483 32081 ft 518 kts 307°
2026-05-04 11:42 53.53880 -7.86521 32085 ft 516 kts 307°
2026-05-04 11:42 53.57856 -7.96554 32084 ft 515 kts 307°
2026-05-04 11:43 53.61727 -8.06355 32098 ft 514 kts 307°
2026-05-04 11:43 53.65677 -8.16398 32090 ft 514 kts 307°
2026-05-04 11:44 53.69616 -8.26452 32089 ft 513 kts 307°
2026-05-04 11:44 53.73542 -8.36509 32081 ft 512 kts 306°
2026-05-04 11:45 53.77440 -8.46542 32088 ft 511 kts 306°
2026-05-04 11:45 53.81299 -8.56514 32109 ft 509 kts 306°
2026-05-04 11:46 53.85171 -8.66557 32106 ft 509 kts 306°
2026-05-04 11:46 53.89032 -8.76610 32092 ft 509 kts 306°
2026-05-04 11:47 53.92884 -8.86682 32107 ft 509 kts 305°
2026-05-04 11:47 53.96718 -8.96746 32090 ft 507 kts 304°
2026-05-04 11:48 54.00445 -9.06573 32099 ft 505 kts 304°
2026-05-04 11:48 54.04236 -9.16605 32111 ft 503 kts 304°
2026-05-04 11:49 54.08012 -9.26638 32115 ft 503 kts 304°
2026-05-04 11:49 54.11780 -9.36688 32124 ft 503 kts 304°
2026-05-04 11:50 54.15514 -9.46687 32123 ft 502 kts 304°
2026-05-04 11:50 54.19254 -9.56748 32122 ft 501 kts 303°
2026-05-04 11:51 54.22979 -9.66807 32134 ft 500 kts 303°
2026-05-04 11:51 54.26691 -9.76873 32132 ft 500 kts 303°
2026-05-04 11:52 54.30391 -9.86943 32144 ft 500 kts 303°
2026-05-04 11:52 54.34061 -9.96975 32148 ft 500 kts 303°
2026-05-04 11:53 54.37687 -10.06925 32144 ft 499 kts 302°
2026-05-04 11:53 54.41355 -10.17032 32142 ft 498 kts 302°
2026-05-04 11:55 54.55881 -10.57472 32145 ft 497 kts 301°
2026-05-04 11:56 54.59489 -10.67618 32140 ft 496 kts 301°
2026-05-04 11:56 54.63053 -10.77684 32136 ft 494 kts 301°
2026-05-04 11:57 54.66623 -10.87808 32128 ft 493 kts 301°
2026-05-04 11:57 54.70178 -10.97931 32134 ft 492 kts 301°
2026-05-04 11:58 54.73668 -11.07910 32136 ft 492 kts 301°
2026-05-04 11:58 54.77205 -11.18066 32139 ft 492 kts 301°
2026-05-04 11:59 54.80709 -11.28167 32129 ft 492 kts 301°
2026-05-04 11:59 54.84220 -11.38331 32131 ft 491 kts 300°
2026-05-04 12:00 54.87724 -11.48518 32131 ft 491 kts 300°
2026-05-04 12:00 54.91216 -11.58711 32134 ft 491 kts 300°
2026-05-04 12:01 54.94675 -11.68851 32133 ft 491 kts 300°
2026-05-04 12:02 55.06709 -12.04460 32131 ft 488 kts 300°
2026-05-04 12:03 55.10114 -12.14628 32128 ft 488 kts 299°
2026-05-04 12:03 55.13531 -12.24879 32128 ft 488 kts 299°
2026-05-04 12:04 55.16940 -12.35146 32147 ft 488 kts 299°
2026-05-04 12:04 55.20338 -12.45427 32138 ft 488 kts 299°
2026-05-04 12:05 55.23699 -12.55638 32134 ft 487 kts 299°
2026-05-04 12:05 55.27075 -12.65937 32129 ft 487 kts 298°
2026-05-04 12:06 55.30440 -12.76248 32130 ft 487 kts 298°
2026-05-04 12:06 55.33794 -12.86568 32125 ft 486 kts 298°
2026-05-04 12:07 55.37116 -12.96836 32134 ft 486 kts 298°
2026-05-04 12:07 55.40401 -13.07030 32128 ft 487 kts 298°
2026-05-04 12:08 55.43730 -13.17406 32131 ft 487 kts 298°
2026-05-04 12:08 55.47047 -13.27789 32131 ft 487 kts 298°
2026-05-04 12:09 55.50364 -13.38216 32130 ft 487 kts 298°
2026-05-04 12:09 55.53664 -13.48639 32133 ft 487 kts 298°
2026-05-04 12:10 55.56938 -13.59020 32148 ft 487 kts 297°
2026-05-04 12:10 55.60220 -13.69473 32139 ft 486 kts 297°
2026-05-04 12:11 55.63485 -13.79919 32132 ft 485 kts 297°
2026-05-04 12:11 55.66734 -13.90361 32130 ft 484 kts 297°
2026-05-04 12:12 55.69895 -14.00561 32133 ft 483 kts 297°
2026-05-04 12:12 55.73117 -14.11006 32130 ft 483 kts 297°
2026-05-04 12:14 55.85916 -14.52956 32145 ft 483 kts 296°
2026-05-04 12:15 55.89100 -14.63509 32138 ft 484 kts 296°
2026-05-04 12:15 55.92276 -14.74082 32141 ft 484 kts 296°
2026-05-04 12:16 55.95439 -14.84662 32159 ft 484 kts 296°
2026-05-04 12:16 55.98579 -14.95202 32138 ft 484 kts 296°
2026-05-04 12:17 56.01405 -15.05877 32161 ft 483 kts 290°
2026-05-04 12:17 56.03886 -15.17044 32155 ft 483 kts 290°
2026-05-04 12:18 56.06349 -15.28247 32139 ft 484 kts 290°
2026-05-04 12:18 56.08809 -15.39385 32137 ft 484 kts 290°
2026-05-04 12:19 56.11289 -15.50609 32143 ft 485 kts 290°
2026-05-04 12:19 56.13762 -15.61853 32148 ft 485 kts 290°
2026-05-04 12:20 56.16231 -15.73138 32151 ft 486 kts 290°
2026-05-04 12:20 56.18691 -15.84447 32151 ft 487 kts 290°
2026-05-04 12:21 56.21129 -15.95721 32150 ft 488 kts 290°
2026-05-04 12:21 56.23539 -16.06924 32153 ft 488 kts 290°
2026-05-04 12:22 56.25976 -16.18319 32153 ft 488 kts 290°
2026-05-04 12:22 56.28401 -16.29716 32150 ft 488 kts 290°
2026-05-04 12:23 56.30818 -16.41143 32166 ft 488 kts 289°
2026-05-04 12:23 56.33209 -16.52510 32158 ft 488 kts 289°
2026-05-04 12:24 56.35604 -16.63961 32158 ft 488 kts 289°
2026-05-04 12:24 56.37988 -16.75420 32154 ft 488 kts 289°
2026-05-04 12:25 56.40343 -16.86810 32161 ft 487 kts 289°
2026-05-04 12:25 56.42703 -16.98286 32156 ft 487 kts 289°
2026-05-04 12:26 56.45013 -17.09587 32164 ft 487 kts 289°
2026-05-04 12:26 56.47356 -17.21111 32177 ft 488 kts 289°
2026-05-04 12:27 56.49669 -17.32552 32164 ft 488 kts 289°
2026-05-04 12:27 56.51988 -17.44096 32165 ft 488 kts 289°
2026-05-04 12:28 56.54296 -17.55644 32166 ft 487 kts 288°
2026-05-04 12:28 56.56599 -17.67241 32303 ft 490 kts 288°
2026-05-04 12:29 56.57749 -17.73057 32516 ft 489 kts 288°
2026-05-04 12:29 56.58893 -17.78861 32778 ft 488 kts 288°
2026-05-04 12:29 56.60031 -17.84650 33015 ft 487 kts 288°
2026-05-04 12:29 56.61150 -17.90356 33216 ft 486 kts 288°
2026-05-04 12:30 56.62278 -17.96128 33391 ft 486 kts 288°
2026-05-04 12:30 56.63369 -18.01731 33600 ft 485 kts 288°
2026-05-04 12:30 56.64491 -18.07505 33829 ft 484 kts 288°
2026-05-04 12:30 56.65608 -18.13275 34014 ft 484 kts 288°
2026-05-04 12:31 56.67833 -18.24813 34154 ft 483 kts 288°
2026-05-04 12:31 56.70044 -18.36348 34171 ft 483 kts 288°
2026-05-04 12:32 56.73323 -18.53582 34184 ft 482 kts 288°
2026-05-04 12:33 56.75502 -18.65120 34180 ft 481 kts 288°
2026-05-04 12:33 56.77669 -18.76671 34182 ft 481 kts 288°
2026-05-04 12:34 56.79824 -18.88221 34189 ft 482 kts 288°
2026-05-04 12:34 56.81956 -18.99723 34181 ft 482 kts 288°
2026-05-04 12:35 56.84059 -19.11135 34183 ft 481 kts 288°
2026-05-04 12:35 56.86184 -19.22739 34191 ft 482 kts 288°
2026-05-04 12:36 56.88300 -19.34362 34191 ft 482 kts 288°
2026-05-04 12:36 56.90391 -19.45924 34191 ft 482 kts 288°
2026-05-04 12:37 56.92486 -19.57576 34189 ft 482 kts 288°
2026-05-04 12:37 56.94568 -19.69235 34200 ft 482 kts 288°
2026-05-04 12:38 56.96642 -19.80916 34186 ft 482 kts 288°
2026-05-04 12:38 56.98690 -19.92520 34197 ft 481 kts 287°
2026-05-04 12:39 57.00182 -20.04235 34196 ft 480 kts 278°
2026-05-04 12:39 57.00710 -20.16443 34200 ft 480 kts 274°
2026-05-04 12:40 57.01128 -20.28668 34197 ft 480 kts 274°
2026-05-04 12:40 57.01557 -20.40878 34198 ft 480 kts 274°
2026-05-04 12:41 57.01991 -20.53018 34198 ft 480 kts 274°
2026-05-04 12:41 57.02423 -20.65236 34203 ft 480 kts 274°
2026-05-04 12:42 57.02843 -20.77454 34209 ft 480 kts 274°
2026-05-04 12:42 57.03250 -20.89678 34205 ft 480 kts 274°
2026-05-04 12:43 57.03636 -21.01639 34211 ft 480 kts 274°
2026-05-04 12:43 57.04019 -21.13861 34202 ft 480 kts 274°
2026-05-04 12:44 57.04389 -21.26082 34215 ft 479 kts 274°
2026-05-04 12:44 57.04748 -21.38302 34211 ft 479 kts 274°
2026-05-04 12:45 57.05094 -21.50525 34212 ft 479 kts 273°
2026-05-04 12:45 57.05427 -21.62657 34214 ft 479 kts 273°
2026-05-04 12:46 57.05750 -21.74878 34204 ft 479 kts 273°
2026-05-04 12:46 57.06060 -21.87091 34214 ft 478 kts 273°
2026-05-04 12:47 57.06359 -21.99301 34211 ft 478 kts 273°
2026-05-04 12:47 57.06642 -22.11316 34235 ft 478 kts 273°
2026-05-04 12:48 57.06915 -22.23434 34224 ft 478 kts 273°
2026-05-04 12:48 57.07178 -22.35651 34224 ft 478 kts 272°
2026-05-04 12:49 57.07430 -22.47870 34217 ft 478 kts 272°
2026-05-04 12:49 57.07669 -22.60084 34229 ft 478 kts 272°
2026-05-04 12:50 57.07895 -22.72228 34224 ft 478 kts 272°
2026-05-04 12:50 57.08111 -22.84442 34229 ft 479 kts 272°
2026-05-04 12:51 57.08315 -22.96674 34233 ft 479 kts 272°
2026-05-04 12:51 57.08505 -23.08726 34223 ft 479 kts 271°
2026-05-04 12:52 57.08686 -23.20985 34247 ft 480 kts 271°
2026-05-04 12:52 57.08854 -23.33194 34248 ft 481 kts 271°
2026-05-04 12:53 57.09011 -23.45510 34247 ft 482 kts 271°
2026-05-04 12:53 57.09157 -23.57832 34239 ft 483 kts 271°
2026-05-04 12:54 57.09291 -23.70180 34234 ft 483 kts 271°
2026-05-04 12:54 57.09413 -23.82556 34237 ft 485 kts 271°
2026-05-04 12:55 57.09522 -23.94883 34241 ft 486 kts 271°
2026-05-04 12:55 57.09619 -24.07130 34243 ft 487 kts 270°
2026-05-04 12:56 57.09705 -24.19595 34244 ft 488 kts 270°
2026-05-04 12:56 57.09779 -24.32076 34248 ft 488 kts 270°
2026-05-04 12:57 57.09840 -24.44485 34244 ft 489 kts 270°
2026-05-04 12:57 57.09889 -24.56993 34247 ft 489 kts 270°
2026-05-04 12:58 57.09926 -24.69492 34248 ft 489 kts 270°
2026-05-04 12:58 57.09950 -24.82013 34263 ft 489 kts 269°
2026-05-04 12:59 57.09962 -24.94449 34261 ft 489 kts 270°
2026-05-04 12:59 57.09961 -25.06771 34251 ft 489 kts 269°
2026-05-04 13:00 57.09948 -25.19291 34249 ft 489 kts 269°
2026-05-04 13:00 57.09923 -25.31802 34257 ft 489 kts 269°
2026-05-04 13:01 57.09885 -25.44223 34258 ft 489 kts 269°
2026-05-04 13:01 57.09835 -25.56717 34260 ft 489 kts 269°
2026-05-04 13:02 57.09773 -25.69240 34251 ft 490 kts 269°
2026-05-04 13:02 57.09698 -25.81755 34267 ft 490 kts 269°
2026-05-04 13:03 57.09610 -25.94310 34264 ft 491 kts 268°
2026-05-04 13:03 57.09512 -26.06605 34260 ft 492 kts 268°
2026-05-04 13:04 57.09399 -26.19193 34271 ft 492 kts 268°
2026-05-04 13:04 57.09273 -26.31780 34264 ft 492 kts 268°
2026-05-04 13:05 57.09134 -26.44371 34269 ft 493 kts 268°
2026-05-04 13:05 57.08983 -26.56962 34266 ft 494 kts 268°
2026-05-04 13:06 57.08821 -26.69508 34272 ft 494 kts 268°
2026-05-04 13:06 57.08644 -26.82143 34263 ft 495 kts 268°
2026-05-04 13:07 57.08454 -26.94785 34281 ft 494 kts 268°
2026-05-04 13:07 57.08255 -27.07213 34271 ft 494 kts 268°
2026-05-04 13:08 57.08043 -27.19716 34267 ft 492 kts 268°
2026-05-04 13:08 57.07817 -27.32260 34273 ft 490 kts 268°
2026-05-04 13:09 57.07579 -27.44774 34277 ft 490 kts 268°
2026-05-04 13:09 57.07329 -27.57270 34278 ft 490 kts 268°
2026-05-04 13:10 57.07067 -27.69776 34282 ft 489 kts 267°
2026-05-04 13:10 57.06792 -27.82297 34284 ft 491 kts 267°
2026-05-04 13:11 57.06504 -27.94799 34282 ft 495 kts 267°
2026-05-04 13:11 57.06205 -28.07270 34293 ft 497 kts 267°
2026-05-04 13:12 57.05888 -28.19964 34288 ft 498 kts 267°
2026-05-04 13:12 57.05614 -28.30529 34289 ft 496 kts 267°
2026-05-04 13:13 57.05221 -28.45130 34283 ft 491 kts 267°
2026-05-04 13:13 57.04928 -28.55616 34289 ft 491 kts 266°
2026-05-04 13:14 57.04568 -28.68070 34292 ft 492 kts 266°
2026-05-04 13:14 57.04194 -28.80608 34292 ft 492 kts 266°
2026-05-04 13:15 57.03743 -28.95190 34300 ft 492 kts 266°
2026-05-04 13:15 57.03413 -29.05509 34289 ft 492 kts 266°
2026-05-04 13:16 57.03004 -29.17964 34294 ft 494 kts 266°
2026-05-04 13:16 57.02576 -29.30599 34313 ft 498 kts 266°
2026-05-04 13:17 57.02132 -29.43328 34305 ft 501 kts 266°
2026-05-04 13:17 57.01674 -29.56107 34308 ft 503 kts 266°
2026-05-04 13:18 57.01201 -29.68908 34301 ft 502 kts 266°
2026-05-04 13:18 57.00723 -29.81514 34300 ft 495 kts 266°
2026-05-04 13:19 57.00236 -29.94089 34310 ft 494 kts 266°
2026-05-04 13:19 57.00157 -30.06526 34312 ft 497 kts 274°
2026-05-04 13:20 57.00682 -30.19229 34321 ft 501 kts 274°
2026-05-04 13:20 57.01211 -30.31891 34315 ft 502 kts 274°
2026-05-04 13:21 57.01702 -30.44685 34310 ft 504 kts 274°
2026-05-04 13:21 57.02166 -30.57575 34325 ft 508 kts 274°
2026-05-04 13:22 57.02616 -30.70557 34330 ft 511 kts 274°
2026-05-04 13:22 57.03054 -30.83573 34321 ft 512 kts 274°
2026-05-04 13:23 57.03477 -30.96529 34316 ft 511 kts 274°
2026-05-04 13:23 57.03883 -31.09352 34319 ft 510 kts 274°
2026-05-04 13:24 57.04282 -31.22344 34318 ft 509 kts 274°
2026-05-04 13:24 57.04665 -31.35304 34320 ft 508 kts 274°
2026-05-04 13:25 57.05213 -31.54631 34319 ft 507 kts 274°
2026-05-04 13:25 57.05563 -31.67589 34327 ft 508 kts 274°
2026-05-04 13:26 57.05901 -31.80571 34328 ft 509 kts 274°
2026-05-04 13:26 57.06225 -31.93570 34325 ft 510 kts 274°
2026-05-04 13:27 57.06531 -32.06325 34323 ft 511 kts 274°
2026-05-04 13:27 57.06828 -32.19365 34332 ft 511 kts 273°
2026-05-04 13:28 57.07114 -32.32414 34328 ft 511 kts 273°
2026-05-04 13:28 57.07385 -32.45452 34327 ft 510 kts 273°
2026-05-04 13:29 57.07640 -32.58389 34328 ft 509 kts 274°
2026-05-04 13:29 57.07884 -32.71377 34335 ft 508 kts 273°
2026-05-04 13:30 57.08113 -32.84336 34330 ft 507 kts 273°
2026-05-04 13:30 57.08329 -32.97273 34337 ft 506 kts 273°
2026-05-04 13:31 57.08528 -33.09997 34333 ft 506 kts 273°
2026-05-04 13:31 57.08716 -33.22816 34340 ft 505 kts 273°
2026-05-04 13:32 57.08891 -33.35743 34334 ft 505 kts 273°
2026-05-04 13:32 57.09054 -33.48656 34330 ft 505 kts 272°
2026-05-04 13:33 57.09202 -33.61581 34334 ft 506 kts 272°
2026-05-04 13:33 57.09338 -33.74410 34331 ft 506 kts 272°
2026-05-04 13:34 57.09460 -33.87347 34328 ft 506 kts 272°
2026-05-04 13:34 57.09569 -34.00194 34335 ft 507 kts 272°
2026-05-04 13:35 57.09707 -34.19462 34331 ft 507 kts 272°
2026-05-04 13:36 57.09784 -34.32424 34332 ft 507 kts 272°
2026-05-04 13:36 57.09847 -34.45409 34335 ft 508 kts 271°
2026-05-04 13:37 57.09896 -34.58373 34322 ft 506 kts 272°
2026-05-04 13:37 57.09933 -34.71315 34333 ft 505 kts 271°
2026-05-04 13:38 57.09955 -34.84128 34331 ft 504 kts 271°
2026-05-04 13:38 57.09965 -34.97016 34323 ft 503 kts 271°
2026-05-04 13:39 57.09962 -35.09702 34329 ft 503 kts 271°
2026-05-04 13:39 57.09945 -35.22576 34330 ft 503 kts 271°
2026-05-04 13:40 57.09915 -35.35432 34322 ft 503 kts 271°
2026-05-04 13:40 57.09873 -35.48195 34322 ft 502 kts 271°
2026-05-04 13:41 57.09818 -35.61019 34324 ft 501 kts 271°
2026-05-04 13:41 57.09748 -35.73824 34317 ft 500 kts 271°
2026-05-04 13:42 57.09622 -35.92889 34314 ft 499 kts 270°
2026-05-04 13:42 57.09523 -36.05432 34313 ft 498 kts 270°
2026-05-04 13:43 57.09410 -36.18158 34318 ft 498 kts 270°
2026-05-04 13:43 57.09284 -36.30868 34313 ft 498 kts 270°
2026-05-04 13:44 57.09144 -36.43596 34318 ft 498 kts 270°
2026-05-04 13:44 57.08994 -36.56251 34307 ft 498 kts 269°
2026-05-04 13:45 57.08830 -36.68946 34296 ft 496 kts 269°
2026-05-04 13:45 57.08653 -36.81597 34301 ft 494 kts 269°
2026-05-04 13:46 57.08465 -36.94188 34304 ft 492 kts 269°
2026-05-04 13:46 57.08268 -37.06492 34303 ft 492 kts 269°
2026-05-04 13:47 57.08055 -37.19066 34307 ft 492 kts 269°
2026-05-04 13:47 57.07830 -37.31642 34306 ft 492 kts 268°
2026-05-04 13:48 57.07591 -37.44223 34291 ft 493 kts 268°
2026-05-04 13:48 57.07340 -37.56805 34295 ft 492 kts 268°
2026-05-04 13:49 57.07079 -37.69272 34295 ft 491 kts 268°
2026-05-04 13:49 57.06803 -37.81825 34292 ft 490 kts 268°
2026-05-04 13:50 57.06516 -37.94324 34290 ft 490 kts 268°
2026-05-04 13:50 57.06222 -38.06625 34290 ft 489 kts 268°